Location: Unspecified
(0.0000°N, 0.0000°E)
Time: 06:34:27
(UTC+00:00)

A-11 Canister half - Pass Details

Date: 19 November 2019
Orbit: 1526 x 1683 km, 47.3° (Epoch: 10 December)

Event Time Altitude Azimuth Distance (km) Brightness Sun altitude
Rises 18:59:43 0° 341° (NNW) 4,703 11.5 -17.5°
Reaches altitude 10° 19:03:23 10° 352° (N) 3,705 10.9 -18.3°
Maximum altitude 19:11:04 29° 49° (NE) 2,519 9.6 -20.1°
Enters shadow 19:11:49 28° 56° (ENE) 2,533 9.6 -20.3°
